Time,TemperatureF,DewpointF,PressureIn,WindDirection,WindDirectionDegrees,WindSpeedMPH,WindSpeedGustMPH,Humidity,HourlyPrecipIn,Conditions,Clouds,dailyrainin,SoftwareType,DateUTC
2013-07-13 00:02:00,80.2,58.8,30.08,WNW,290,5.0,8.0,48,0.00,,,0.00,meteohub,2013-07-13 06:02:00,
2013-07-13 00:07:00,80.1,59.2,30.08,WNW,283,4.0,8.0,49,0.00,,,0.00,meteohub,2013-07-13 06:07:00,
2013-07-13 00:12:00,79.9,59.0,30.08,WNW,283,3.0,8.0,49,0.00,,,0.00,meteohub,2013-07-13 06:12:00,
2013-07-13 00:17:00,79.5,59.2,30.08,WNW,284,3.0,7.0,50,0.00,,,0.00,meteohub,2013-07-13 06:17:00,
2013-07-13 00:22:00,79.3,59.0,30.08,WNW,284,1.0,5.0,50,0.00,,,0.00,meteohub,2013-07-13 06:22:00,
2013-07-13 00:27:00,79.2,59.5,30.08,WNW,284,2.0,5.0,51,0.00,,,0.00,meteohub,2013-07-13 06:27:00,
2013-07-13 00:32:00,79.0,59.4,30.08,WNW,284,2.0,5.0,51,0.00,,,0.00,meteohub,2013-07-13 06:32:00,
2013-07-13 00:37:00,79.0,59.4,30.08,WNW,284,3.0,4.0,51,0.00,,,0.00,meteohub,2013-07-13 06:37:00,
2013-07-13 00:42:00,78.6,59.0,30.08,WNW,284,2.0,4.0,51,0.00,,,0.00,meteohub,2013-07-13 06:42:00,
2013-07-13 00:47:00,78.6,59.5,30.08,WNW,285,2.0,4.0,52,0.00,,,0.00,meteohub,2013-07-13 06:47:00,
2013-07-13 00:52:00,78.6,59.5,30.08,WNW,285,1.0,4.0,52,0.00,,,0.00,meteohub,2013-07-13 06:52:00,
2013-07-13 00:57:00,78.6,60.1,30.08,WNW,285,4.0,4.0,53,0.00,,,0.00,meteohub,2013-07-13 06:57:00,
2013-07-13 01:02:00,78.6,60.1,30.08,NW,310,3.0,5.0,53,0.00,,,0.00,meteohub,2013-07-13 07:02:00,
2013-07-13 01:07:00,78.3,59.7,30.08,North,355,3.0,6.0,53,0.00,,,0.00,meteohub,2013-07-13 07:07:00,
2013-07-13 01:12:00,77.5,59.5,30.08,North,355,4.0,6.0,54,0.00,,,0.00,meteohub,2013-07-13 07:12:00,
2013-07-13 01:17:00,77.2,60.3,30.09,North,5,3.0,7.0,56,0.00,,,0.00,meteohub,2013-07-13 07:17:00,
2013-07-13 01:22:00,76.6,60.8,30.09,NNE,15,1.0,7.0,58,0.00,,,0.00,meteohub,2013-07-13 07:22:00,
2013-07-13 01:27:00,75.9,61.5,30.09,North,0,3.0,7.0,61,0.00,,,0.00,meteohub,2013-07-13 07:27:00,
2013-07-13 01:32:00,75.7,61.9,30.09,North,0,4.0,6.0,62,0.00,,,0.00,meteohub,2013-07-13 07:32:00,
2013-07-13 01:37:00,75.7,61.9,30.09,NNW,345,2.0,6.0,62,0.00,,,0.00,meteohub,2013-07-13 07:37:00,
2013-07-13 01:42:00,76.5,61.5,30.08,NNW,336,4.0,6.0,60,0.00,,,0.00,meteohub,2013-07-13 07:42:00,
2013-07-13 01:48:00,76.8,61.0,30.08,NNW,336,4.0,6.0,58,0.00,,,0.00,meteohub,2013-07-13 07:48:00,
2013-07-13 01:54:00,77.4,61.0,30.08,NNW,336,4.0,6.0,57,0.00,,,0.00,meteohub,2013-07-13 07:54:00,
2013-07-13 02:00:00,77.4,60.4,30.08,NNW,336,3.0,6.0,56,0.00,,,0.00,meteohub,2013-07-13 08:00:00,
2013-07-13 02:06:00,77.4,60.4,30.08,NNW,336,1.0,6.0,56,0.00,,,0.00,meteohub,2013-07-13 08:06:00,
2013-07-13 02:11:00,77.4,60.4,30.08,NNW,336,1.0,6.0,56,0.00,,,0.00,meteohub,2013-07-13 08:11:00,
2013-07-13 02:17:00,77.4,61.0,30.08,NNW,336,0.0,4.0,57,0.00,,,0.00,meteohub,2013-07-13 08:17:00,
2013-07-13 02:22:00,77.2,60.8,30.08,NNW,336,0.0,3.0,57,0.00,,,0.00,meteohub,2013-07-13 08:22:00,
2013-07-13 02:27:00,77.0,60.6,30.07,NNW,336,0.0,3.0,57,0.00,,,0.00,meteohub,2013-07-13 08:27:00,
2013-07-13 02:32:00,76.8,60.4,30.07,NNW,336,0.0,0.0,57,0.00,,,0.00,meteohub,2013-07-13 08:32:00,
2013-07-13 02:37:00,76.8,60.4,30.07,NNW,336,0.0,0.0,57,0.00,,,0.00,meteohub,2013-07-13 08:37:00,
2013-07-13 02:42:00,76.8,60.4,30.07,NNW,336,0.0,0.0,57,0.00,,,0.00,meteohub,2013-07-13 08:42:00,
2013-07-13 02:47:00,76.8,60.4,30.07,NNW,336,0.0,0.0,57,0.00,,,0.00,meteohub,2013-07-13 08:47:00,
2013-07-13 02:52:00,76.6,60.3,30.07,NNW,336,0.0,0.0,57,0.00,,,0.00,meteohub,2013-07-13 08:52:00,
2013-07-13 02:57:00,76.5,60.1,30.06,NNW,336,0.0,0.0,57,0.00,,,0.00,meteohub,2013-07-13 08:57:00,
2013-07-13 03:02:00,76.5,60.1,30.06,NNW,336,0.0,0.0,57,0.00,,,0.00,meteohub,2013-07-13 09:02:00,
2013-07-13 03:07:00,76.6,60.3,30.06,NNW,336,0.0,0.0,57,0.00,,,0.00,meteohub,2013-07-13 09:07:00,
2013-07-13 03:12:00,76.5,60.1,30.06,NNW,336,0.0,0.0,57,0.00,,,0.00,meteohub,2013-07-13 09:12:00,
2013-07-13 03:17:00,76.3,59.9,30.06,NNW,336,0.0,0.0,57,0.00,,,0.00,meteohub,2013-07-13 09:17:00,
2013-07-13 03:22:00,75.9,59.5,30.07,NNW,336,0.0,0.0,57,0.00,,,0.00,meteohub,2013-07-13 09:22:00,
2013-07-13 03:27:00,76.1,59.7,30.07,NNW,336,0.0,0.0,57,0.00,,,0.00,meteohub,2013-07-13 09:27:00,
2013-07-13 03:32:00,75.6,59.7,30.06,NNW,336,3.0,0.0,58,0.00,,,0.00,meteohub,2013-07-13 09:32:00,
2013-07-13 03:37:00,75.6,59.7,30.06,NNW,336,1.0,4.0,58,0.00,,,0.00,meteohub,2013-07-13 09:37:00,
2013-07-13 03:42:00,75.4,59.5,30.06,NNW,336,2.0,4.0,58,0.00,,,0.00,meteohub,2013-07-13 09:42:00,
2013-07-13 03:47:00,75.4,59.5,30.06,NNW,336,1.0,4.0,58,0.00,,,0.00,meteohub,2013-07-13 09:47:00,
2013-07-13 03:52:00,75.6,59.7,30.06,NNW,336,1.0,4.0,58,0.00,,,0.00,meteohub,2013-07-13 09:52:00,
2013-07-13 03:57:00,75.4,59.5,30.06,NNW,336,0.0,4.0,58,0.00,,,0.00,meteohub,2013-07-13 09:57:00,
2013-07-13 04:02:00,75.2,59.4,30.06,NNW,336,3.0,3.0,58,0.00,,,0.00,meteohub,2013-07-13 10:02:00,
2013-07-13 04:07:00,75.4,59.0,30.06,NNW,331,3.0,5.0,57,0.00,,,0.00,meteohub,2013-07-13 10:07:00,
2013-07-13 04:12:00,75.4,58.1,30.06,NW,312,3.0,5.0,55,0.00,,,0.00,meteohub,2013-07-13 10:12:00,
2013-07-13 04:17:00,75.6,57.7,30.06,WNW,285,2.0,6.0,54,0.00,,,0.00,meteohub,2013-07-13 10:17:00,
2013-07-13 04:22:00,75.7,57.9,30.06,WNW,285,4.0,6.0,54,0.00,,,0.00,meteohub,2013-07-13 10:22:00,
2013-07-13 04:27:00,75.6,57.2,30.06,WNW,285,3.0,6.0,53,0.00,,,0.00,meteohub,2013-07-13 10:27:00,
2013-07-13 04:32:00,75.6,57.7,30.06,WNW,285,2.0,6.0,54,0.00,,,0.00,meteohub,2013-07-13 10:32:00,
2013-07-13 04:37:00,75.4,57.6,30.06,WNW,285,2.0,5.0,54,0.00,,,0.00,meteohub,2013-07-13 10:37:00,
2013-07-13 04:42:00,75.4,57.6,30.06,WNW,285,3.0,5.0,54,0.00,,,0.00,meteohub,2013-07-13 10:42:00,
2013-07-13 04:47:00,75.4,57.6,30.06,WNW,282,4.0,5.0,54,0.00,,,0.00,meteohub,2013-07-13 10:47:00,
2013-07-13 04:52:00,75.0,57.7,30.06,West,261,3.0,7.0,55,0.00,,,0.00,meteohub,2013-07-13 10:52:00,
2013-07-13 04:57:00,74.8,58.1,30.06,West,261,3.0,8.0,56,0.00,,,0.00,meteohub,2013-07-13 10:57:00,
2013-07-13 05:02:00,74.8,58.1,30.07,West,262,3.0,8.0,56,0.00,,,0.00,meteohub,2013-07-13 11:02:00,
2013-07-13 05:07:00,74.8,58.1,30.07,West,265,2.0,7.0,56,0.00,,,0.00,meteohub,2013-07-13 11:07:00,
2013-07-13 05:12:00,74.7,57.9,30.07,West,266,5.0,6.0,56,0.00,,,0.00,meteohub,2013-07-13 11:12:00,
2013-07-13 05:17:00,74.5,57.7,30.07,West,266,3.0,6.0,56,0.00,,,0.00,meteohub,2013-07-13 11:17:00,
2013-07-13 05:22:00,74.5,57.7,30.07,West,269,2.0,6.0,56,0.00,,,0.00,meteohub,2013-07-13 11:22:00,
2013-07-13 05:27:00,74.7,57.9,30.07,West,269,3.0,5.0,56,0.00,,,0.00,meteohub,2013-07-13 11:27:00,
2013-07-13 05:32:00,74.5,57.7,30.07,West,269,3.0,5.0,56,0.00,,,0.00,meteohub,2013-07-13 11:32:00,
2013-07-13 05:37:00,74.5,57.7,30.08,West,269,0.0,5.0,56,0.00,,,0.00,meteohub,2013-07-13 11:37:00,
2013-07-13 05:42:00,73.8,57.6,30.08,West,269,0.0,4.0,57,0.00,,,0.00,meteohub,2013-07-13 11:42:00,
2013-07-13 05:47:00,73.0,57.9,30.08,West,269,0.0,4.0,59,0.00,,,0.00,meteohub,2013-07-13 11:47:00,
2013-07-13 05:52:00,73.0,58.3,30.08,West,269,0.0,3.0,60,0.00,,,0.00,meteohub,2013-07-13 11:52:00,
2013-07-13 05:57:00,72.9,58.1,30.08,West,269,0.0,2.0,60,0.00,,,0.00,meteohub,2013-07-13 11:57:00,
2013-07-13 06:02:00,72.1,57.9,30.09,West,269,1.0,3.0,61,0.00,,,0.00,meteohub,2013-07-13 12:02:00,
2013-07-13 06:07:00,72.0,58.3,30.09,West,268,2.0,4.0,62,0.00,,,0.00,meteohub,2013-07-13 12:07:00,
2013-07-13 06:12:00,72.1,58.5,30.09,WSW,247,4.0,5.0,62,0.00,,,0.00,meteohub,2013-07-13 12:12:00,
2013-07-13 06:17:00,72.5,58.3,30.09,WSW,247,2.0,6.0,61,0.00,,,0.00,meteohub,2013-07-13 12:17:00,
2013-07-13 06:22:00,72.3,58.1,30.09,WSW,247,1.0,6.0,61,0.00,,,0.00,meteohub,2013-07-13 12:22:00,
2013-07-13 06:27:00,72.1,57.9,30.09,WSW,247,2.0,6.0,61,0.00,,,0.00,meteohub,2013-07-13 12:27:00,
2013-07-13 06:32:00,72.0,58.3,30.09,WSW,247,1.0,5.0,62,0.00,,,0.00,meteohub,2013-07-13 12:32:00,
2013-07-13 06:37:00,72.1,58.8,30.10,WSW,246,2.0,4.0,63,0.00,,,0.00,meteohub,2013-07-13 12:37:00,
2013-07-13 06:42:00,72.3,59.9,30.09,WSW,254,5.0,6.0,65,0.00,,,0.00,meteohub,2013-07-13 12:42:00,
2013-07-13 06:47:00,72.7,60.3,30.09,West,261,3.0,7.0,65,0.00,,,0.00,meteohub,2013-07-13 12:47:00,
2013-07-13 06:52:00,72.9,60.4,30.09,WSW,258,3.0,7.0,65,0.00,,,0.00,meteohub,2013-07-13 12:52:00,
2013-07-13 06:57:00,73.2,60.8,30.09,West,259,4.0,7.0,65,0.00,,,0.00,meteohub,2013-07-13 12:57:00,
2013-07-13 07:02:00,73.6,60.6,30.09,West,261,3.0,8.0,64,0.00,,,0.00,meteohub,2013-07-13 13:02:00,
2013-07-13 07:07:00,73.9,61.0,30.10,WSW,256,4.0,8.0,64,0.00,,,0.00,meteohub,2013-07-13 13:07:00,
2013-07-13 07:13:00,74.5,61.0,30.10,WSW,256,4.0,8.0,63,0.00,,,0.00,meteohub,2013-07-13 13:13:00,
2013-07-13 07:19:00,74.8,61.0,30.10,WSW,256,0.0,6.0,62,0.00,,,0.00,meteohub,2013-07-13 13:19:00,
2013-07-13 07:25:00,75.2,61.3,30.10,WSW,256,2.0,6.0,62,0.00,,,0.00,meteohub,2013-07-13 13:25:00,
2013-07-13 07:31:00,75.7,60.8,30.10,WSW,256,2.0,4.0,60,0.00,,,0.00,meteohub,2013-07-13 13:31:00,
2013-07-13 07:37:00,75.9,61.0,30.10,SW,223,2.0,3.0,60,0.00,,,0.00,meteohub,2013-07-13 13:37:00,
2013-07-13 07:42:00,75.9,61.5,30.11,SW,223,1.0,3.0,61,0.00,,,0.00,meteohub,2013-07-13 13:42:00,
2013-07-13 07:47:00,75.7,61.3,30.11,SW,222,2.0,3.0,61,0.00,,,0.00,meteohub,2013-07-13 13:47:00,
2013-07-13 07:52:00,76.1,61.7,30.11,SE,139,0.0,5.0,61,0.00,,,0.00,meteohub,2013-07-13 13:52:00,
2013-07-13 07:57:00,76.3,61.3,30.11,SE,139,0.0,5.0,60,0.00,,,0.00,meteohub,2013-07-13 13:57:00,
2013-07-13 08:02:00,76.5,61.5,30.11,SE,139,0.0,5.0,60,0.00,,,0.00,meteohub,2013-07-13 14:02:00,
2013-07-13 08:07:00,76.6,61.2,30.11,SE,139,0.0,3.0,59,0.00,,,0.00,meteohub,2013-07-13 14:07:00,
2013-07-13 08:12:00,77.0,61.2,30.11,SE,139,0.0,3.0,58,0.00,,,0.00,meteohub,2013-07-13 14:12:00,
2013-07-13 08:17:00,77.7,61.3,30.11,SE,139,0.0,2.0,57,0.00,,,0.00,meteohub,2013-07-13 14:17:00,
2013-07-13 08:22:00,78.1,61.2,30.11,SE,139,1.0,2.0,56,0.00,,,0.00,meteohub,2013-07-13 14:22:00,
2013-07-13 08:27:00,78.3,61.3,30.12,SE,139,0.0,3.0,56,0.00,,,0.00,meteohub,2013-07-13 14:27:00,
2013-07-13 08:32:00,78.4,61.5,30.11,SE,139,2.0,3.0,56,0.00,,,0.00,meteohub,2013-07-13 14:32:00,
2013-07-13 08:37:00,79.2,61.2,30.12,SE,127,0.0,4.0,54,0.00,,,0.00,meteohub,2013-07-13 14:37:00,
2013-07-13 08:42:00,79.3,61.2,30.12,ESE,110,4.0,4.0,54,0.00,,,0.00,meteohub,2013-07-13 14:42:00,
2013-07-13 08:47:00,79.5,60.8,30.12,East,94,1.0,4.0,53,0.00,,,0.00,meteohub,2013-07-13 14:47:00,
2013-07-13 08:52:00,79.9,61.2,30.11,East,92,2.0,5.0,53,0.00,,,0.00,meteohub,2013-07-13 14:52:00,
2013-07-13 08:57:00,80.1,61.3,30.12,NE,50,3.0,6.0,53,0.00,,,0.00,meteohub,2013-07-13 14:57:00,
2013-07-13 09:02:00,81.0,61.2,30.12,NNE,13,1.0,6.0,51,0.00,,,0.00,meteohub,2013-07-13 15:02:00,
2013-07-13 09:07:00,80.4,61.2,30.12,NNE,18,0.0,6.0,52,0.00,,,0.00,meteohub,2013-07-13 15:07:00,
2013-07-13 09:12:00,81.0,61.2,30.12,NNE,23,2.0,6.0,51,0.00,,,0.00,meteohub,2013-07-13 15:12:00,
2013-07-13 09:17:00,81.1,61.3,30.11,North,355,0.0,5.0,51,0.00,,,0.00,meteohub,2013-07-13 15:17:00,
2013-07-13 09:22:00,81.1,60.8,30.11,North,0,0.0,5.0,50,0.00,,,0.00,meteohub,2013-07-13 15:22:00,
2013-07-13 09:27:00,81.0,60.6,30.11,North,0,0.0,4.0,50,0.00,,,0.00,meteohub,2013-07-13 15:27:00,
2013-07-13 09:32:00,81.7,61.2,30.11,NNW,342,3.0,4.0,50,0.00,,,0.00,meteohub,2013-07-13 15:32:00,
2013-07-13 09:37:00,81.7,61.2,30.11,NW,319,1.0,8.0,50,0.00,,,0.00,meteohub,2013-07-13 15:37:00,
2013-07-13 09:42:00,82.8,61.7,30.11,NNW,327,2.0,8.0,49,0.00,,,0.00,meteohub,2013-07-13 15:42:00,
2013-07-13 09:47:00,83.5,61.2,30.11,NNE,18,0.0,8.0,47,0.00,,,0.00,meteohub,2013-07-13 15:47:00,
2013-07-13 09:52:00,84.0,61.0,30.11,North,9,1.0,5.0,46,0.00,,,0.00,meteohub,2013-07-13 15:52:00,
2013-07-13 09:57:00,84.0,61.7,30.11,NNE,18,0.0,5.0,47,0.00,,,0.00,meteohub,2013-07-13 15:57:00,
2013-07-13 10:02:00,84.6,61.5,30.11,NE,44,2.0,5.0,46,0.00,,,0.00,meteohub,2013-07-13 16:02:00,
2013-07-13 10:07:00,84.9,60.6,30.11,NE,44,2.0,5.0,44,0.00,,,0.00,meteohub,2013-07-13 16:07:00,
2013-07-13 10:12:00,85.1,61.3,30.10,NE,44,4.0,5.0,45,0.00,,,0.00,meteohub,2013-07-13 16:12:00,
2013-07-13 10:17:00,85.5,60.4,30.10,NNE,22,5.0,5.0,43,0.00,,,0.00,meteohub,2013-07-13 16:17:00,
2013-07-13 10:22:00,86.0,60.3,30.10,NNE,24,0.0,5.0,42,0.00,,,0.00,meteohub,2013-07-13 16:22:00,
2013-07-13 10:27:00,86.2,61.0,30.10,ENE,57,2.0,5.0,43,0.00,,,0.00,meteohub,2013-07-13 16:27:00,
2013-07-13 10:32:00,86.9,59.7,30.10,NNE,25,1.0,7.0,40,0.00,,,0.00,meteohub,2013-07-13 16:32:00,
2013-07-13 10:37:00,87.1,60.4,30.10,NNE,25,1.0,7.0,41,0.00,,,0.00,meteohub,2013-07-13 16:37:00,
2013-07-13 10:42:00,87.6,59.5,30.10,ENE,63,4.0,7.0,39,0.00,,,0.00,meteohub,2013-07-13 16:42:00,
2013-07-13 10:47:00,87.1,59.9,30.10,ENE,63,3.0,7.0,40,0.00,,,0.00,meteohub,2013-07-13 16:47:00,
2013-07-13 10:52:00,87.6,59.5,30.10,ENE,63,1.0,7.0,39,0.00,,,0.00,meteohub,2013-07-13 16:52:00,
2013-07-13 10:57:00,87.4,59.4,30.10,SE,125,3.0,7.0,39,0.00,,,0.00,meteohub,2013-07-13 16:57:00,
2013-07-13 11:02:00,88.7,59.0,30.10,SSW,212,1.0,7.0,37,0.00,,,0.00,meteohub,2013-07-13 17:02:00,
2013-07-13 11:07:00,89.6,59.2,30.10,South,186,2.0,6.0,36,0.00,,,0.00,meteohub,2013-07-13 17:07:00,
2013-07-13 11:12:00,89.8,58.5,30.10,SW,217,0.0,6.0,35,0.00,,,0.00,meteohub,2013-07-13 17:12:00,
2013-07-13 11:17:00,90.5,58.3,30.09,NE,46,1.0,3.0,34,0.00,,,0.00,meteohub,2013-07-13 17:17:00,
2013-07-13 11:22:00,91.2,58.1,30.09,ENE,65,3.0,7.0,33,0.00,,,0.00,meteohub,2013-07-13 17:22:00,
2013-07-13 11:27:00,90.9,56.8,30.09,East,80,1.0,7.0,32,0.00,,,0.00,meteohub,2013-07-13 17:27:00,
2013-07-13 11:32:00,90.9,56.8,30.09,North,10,5.0,7.0,32,0.00,,,0.00,meteohub,2013-07-13 17:32:00,
2013-07-13 11:37:00,91.0,55.2,30.09,NNW,341,2.0,7.0,30,0.00,,,0.00,meteohub,2013-07-13 17:37:00,
2013-07-13 11:42:00,91.9,56.1,30.09,NNE,33,3.0,7.0,30,0.00,,,0.00,meteohub,2013-07-13 17:42:00,
2013-07-13 11:47:00,91.8,55.0,30.09,NE,55,1.0,7.0,29,0.00,,,0.00,meteohub,2013-07-13 17:47:00,
2013-07-13 11:52:00,92.1,55.2,30.09,ENE,57,3.0,9.0,29,0.00,,,0.00,meteohub,2013-07-13 17:52:00,
2013-07-13 11:57:00,91.9,54.1,30.08,East,81,0.0,9.0,28,0.00,,,0.00,meteohub,2013-07-13 17:57:00,
2013-07-13 12:02:00,92.1,54.3,30.08,North,355,0.0,9.0,28,0.00,,,0.00,meteohub,2013-07-13 18:02:00,
2013-07-13 12:07:00,91.9,54.1,30.08,NNW,330,1.0,6.0,28,0.00,,,0.00,meteohub,2013-07-13 18:07:00,
2013-07-13 12:12:00,92.1,54.3,30.08,NNE,24,0.0,6.0,28,0.00,,,0.00,meteohub,2013-07-13 18:12:00,
2013-07-13 12:17:00,92.1,54.3,30.08,NNE,22,2.0,6.0,28,0.00,,,0.00,meteohub,2013-07-13 18:17:00,
2013-07-13 12:22:00,93.4,53.4,30.07,NW,313,1.0,5.0,26,0.00,,,0.00,meteohub,2013-07-13 18:22:00,
2013-07-13 12:27:00,93.9,53.8,30.07,NNW,331,5.0,5.0,26,0.00,,,0.00,meteohub,2013-07-13 18:27:00,
2013-07-13 12:32:00,93.7,54.7,30.07,NNW,345,5.0,7.0,27,0.00,,,0.00,meteohub,2013-07-13 18:32:00,
2013-07-13 12:37:00,93.9,54.9,30.07,NNW,342,3.0,8.0,27,0.00,,,0.00,meteohub,2013-07-13 18:37:00,
2013-07-13 12:42:00,94.6,55.4,30.06,South,174,4.0,8.0,27,0.00,,,0.00,meteohub,2013-07-13 18:42:00,
2013-07-13 12:47:00,95.7,55.4,30.06,SSW,192,8.0,8.0,26,0.00,,,0.00,meteohub,2013-07-13 18:47:00,
2013-07-13 12:52:00,95.7,55.4,30.06,South,186,3.0,10.0,26,0.00,,,0.00,meteohub,2013-07-13 18:52:00,
2013-07-13 12:57:00,95.4,56.1,30.06,South,190,1.0,10.0,27,0.00,,,0.00,meteohub,2013-07-13 18:57:00,
2013-07-13 13:02:00,95.4,57.0,30.06,SSE,159,4.0,10.0,28,0.00,,,0.00,meteohub,2013-07-13 19:02:00,
2013-07-13 13:07:00,96.1,56.7,30.06,East,100,3.0,8.0,27,0.00,,,0.00,meteohub,2013-07-13 19:07:00,
2013-07-13 13:12:00,94.5,56.3,30.06,SSW,194,2.0,12.0,28,0.00,,,0.00,meteohub,2013-07-13 19:12:00,
2013-07-13 13:17:00,95.4,57.0,30.05,South,174,6.0,12.0,28,0.00,,,0.00,meteohub,2013-07-13 19:17:00,
2013-07-13 13:22:00,96.1,56.7,30.05,SSE,150,3.0,8.0,27,0.00,,,0.00,meteohub,2013-07-13 19:22:00,
2013-07-13 13:27:00,97.5,56.8,30.05,ESE,112,4.0,9.0,26,0.00,,,0.00,meteohub,2013-07-13 19:27:00,
2013-07-13 13:32:00,97.3,56.7,30.04,SSE,159,4.0,9.0,26,0.00,,,0.00,meteohub,2013-07-13 19:32:00,
2013-07-13 13:37:00,97.2,55.4,30.04,ESE,104,8.0,13.0,25,0.00,,,0.00,meteohub,2013-07-13 19:37:00,
2013-07-13 13:42:00,97.2,55.4,30.04,East,79,0.0,13.0,25,0.00,,,0.00,meteohub,2013-07-13 19:42:00,
2013-07-13 13:47:00,96.6,56.1,30.04,North,0,1.0,13.0,26,0.00,,,0.00,meteohub,2013-07-13 19:47:00,
2013-07-13 13:52:00,98.2,55.2,30.04,ENE,76,3.0,10.0,24,0.00,,,0.00,meteohub,2013-07-13 19:52:00,
2013-07-13 13:57:00,98.4,55.4,30.04,SE,139,7.0,11.0,24,0.00,,,0.00,meteohub,2013-07-13 19:57:00,
2013-07-13 14:02:00,98.2,54.1,30.04,SE,134,6.0,15.0,23,0.00,,,0.00,meteohub,2013-07-13 20:02:00,
2013-07-13 14:07:00,98.1,54.0,30.03,SE,140,1.0,15.0,23,0.00,,,0.00,meteohub,2013-07-13 20:07:00,
2013-07-13 14:12:00,97.7,53.6,30.03,South,178,7.0,15.0,23,0.00,,,0.00,meteohub,2013-07-13 20:12:00,
2013-07-13 14:17:00,98.2,54.1,30.03,SSE,160,7.0,15.0,23,0.00,,,0.00,meteohub,2013-07-13 20:17:00,
2013-07-13 14:22:00,98.2,54.1,30.03,SE,128,5.0,13.0,23,0.00,,,0.00,meteohub,2013-07-13 20:22:00,
2013-07-13 14:27:00,99.3,53.8,30.03,NE,36,6.0,13.0,22,0.00,,,0.00,meteohub,2013-07-13 20:27:00,
2013-07-13 14:32:00,98.8,54.5,30.03,ESE,107,5.0,13.0,23,0.00,,,0.00,meteohub,2013-07-13 20:32:00,
2013-07-13 14:37:00,99.5,55.2,30.03,ESE,123,8.0,11.0,23,0.00,,,0.00,meteohub,2013-07-13 20:37:00,
2013-07-13 14:42:00,99.3,53.8,30.03,SE,146,7.0,11.0,22,0.00,,,0.00,meteohub,2013-07-13 20:42:00,
2013-07-13 14:47:00,99.1,53.6,30.03,SSE,155,9.0,13.0,22,0.00,,,0.00,meteohub,2013-07-13 20:47:00,
2013-07-13 14:52:00,98.8,53.2,30.02,West,281,4.0,14.0,22,0.00,,,0.00,meteohub,2013-07-13 20:52:00,
2013-07-13 14:57:00,98.2,54.1,30.02,ENE,63,1.0,14.0,23,0.00,,,0.00,meteohub,2013-07-13 20:57:00,
2013-07-13 15:02:00,99.1,52.3,30.02,SSE,159,10.0,11.0,21,0.00,,,0.00,meteohub,2013-07-13 21:02:00,
2013-07-13 15:07:00,99.5,51.3,30.02,South,181,6.0,15.0,20,0.00,,,0.00,meteohub,2013-07-13 21:07:00,
2013-07-13 15:12:00,99.0,52.2,30.02,South,180,2.0,15.0,21,0.00,,,0.00,meteohub,2013-07-13 21:12:00,
2013-07-13 15:17:00,99.7,51.4,30.01,SE,133,7.0,15.0,20,0.00,,,0.00,meteohub,2013-07-13 21:17:00,
2013-07-13 15:22:00,99.3,52.5,30.01,ESE,117,7.0,12.0,21,0.00,,,0.00,meteohub,2013-07-13 21:22:00,
2013-07-13 15:27:00,99.7,48.6,30.01,ESE,111,2.0,12.0,18,0.00,,,0.00,meteohub,2013-07-13 21:27:00,
2013-07-13 15:32:00,99.7,50.0,30.01,SSE,154,7.0,10.0,19,0.00,,,0.00,meteohub,2013-07-13 21:32:00,
2013-07-13 15:37:00,99.3,49.8,30.01,SSW,194,7.0,12.0,19,0.00,,,0.00,meteohub,2013-07-13 21:37:00,
2013-07-13 15:42:00,99.9,50.2,30.01,East,84,3.0,12.0,19,0.00,,,0.00,meteohub,2013-07-13 21:42:00,
2013-07-13 15:47:00,99.5,50.0,30.01,South,178,3.0,12.0,19,0.00,,,0.00,meteohub,2013-07-13 21:47:00,
2013-07-13 15:52:00,100.0,50.4,30.00,East,99,7.0,10.0,19,0.00,,,0.00,meteohub,2013-07-13 21:52:00,
2013-07-13 15:57:00,99.9,50.2,30.00,East,84,0.0,11.0,19,0.00,,,0.00,meteohub,2013-07-13 21:57:00,
2013-07-13 16:02:00,99.1,51.1,30.00,ENE,68,0.0,11.0,20,0.00,,,0.00,meteohub,2013-07-13 22:02:00,
2013-07-13 16:07:00,99.3,49.8,29.99,South,186,9.0,11.0,19,0.00,,,0.00,meteohub,2013-07-13 22:07:00,
2013-07-13 16:12:00,99.9,50.2,29.99,SW,222,7.0,11.0,19,0.00,,,0.00,meteohub,2013-07-13 22:12:00,
2013-07-13 16:17:00,100.6,49.3,30.00,South,180,4.0,11.0,18,0.00,,,0.00,meteohub,2013-07-13 22:17:00,
2013-07-13 16:22:00,100.0,50.4,29.99,ESE,117,11.0,11.0,19,0.00,,,0.00,meteohub,2013-07-13 22:22:00,
2013-07-13 16:27:00,100.2,50.5,29.99,SE,140,5.0,13.0,19,0.00,,,0.00,meteohub,2013-07-13 22:27:00,
2013-07-13 16:32:00,100.2,50.5,29.99,ESE,103,7.0,13.0,19,0.00,,,0.00,meteohub,2013-07-13 22:32:00,
2013-07-13 16:37:00,99.3,51.3,29.99,SSE,167,4.0,13.0,20,0.00,,,0.00,meteohub,2013-07-13 22:37:00,
2013-07-13 16:42:00,99.7,50.0,29.99,South,179,7.0,11.0,19,0.00,,,0.00,meteohub,2013-07-13 22:42:00,
2013-07-13 16:47:00,100.2,47.5,29.99,SSW,193,6.0,14.0,17,0.00,,,0.00,meteohub,2013-07-13 22:47:00,
2013-07-13 16:52:00,100.2,50.5,29.98,ESE,110,5.0,14.0,19,0.00,,,0.00,meteohub,2013-07-13 22:52:00,
2013-07-13 16:58:00,99.7,51.4,29.98,ESE,115,3.0,14.0,20,0.00,,,0.00,meteohub,2013-07-13 22:58:00,
2013-07-13 17:03:00,99.3,49.8,29.98,SE,138,4.0,11.0,19,0.00,,,0.00,meteohub,2013-07-13 23:03:00,
2013-07-13 17:09:00,99.5,50.0,29.98,SE,132,1.0,11.0,19,0.00,,,0.00,meteohub,2013-07-13 23:09:00,
2013-07-13 17:15:00,100.0,53.1,29.98,ESE,105,11.0,11.0,21,0.00,,,0.00,meteohub,2013-07-13 23:15:00,
2013-07-13 17:21:00,98.8,52.0,29.97,SE,127,0.0,12.0,21,0.00,,,0.00,meteohub,2013-07-13 23:21:00,
2013-07-13 17:27:00,99.1,52.3,29.97,East,90,3.0,12.0,21,0.00,,,0.00,meteohub,2013-07-13 23:27:00,
2013-07-13 17:32:00,99.5,52.7,29.97,SSE,151,1.0,11.0,21,0.00,,,0.00,meteohub,2013-07-13 23:32:00,
2013-07-13 17:37:00,99.5,52.7,29.97,SE,143,6.0,10.0,21,0.00,,,0.00,meteohub,2013-07-13 23:37:00,
2013-07-13 17:42:00,99.5,52.7,29.97,SE,132,5.0,10.0,21,0.00,,,0.00,meteohub,2013-07-13 23:42:00,
2013-07-13 17:47:00,99.3,52.5,29.96,SE,145,5.0,14.0,21,0.00,,,0.00,meteohub,2013-07-13 23:47:00,
2013-07-13 17:52:00,99.3,52.5,29.96,SE,129,2.0,14.0,21,0.00,,,0.00,meteohub,2013-07-13 23:52:00,
2013-07-13 17:57:00,99.0,52.2,29.96,South,177,8.0,14.0,21,0.00,,,0.00,meteohub,2013-07-13 23:57:00,
2013-07-13 18:02:00,99.1,52.3,29.96,SE,137,8.0,10.0,21,0.00,,,0.00,meteohub,2013-07-14 00:02:00,
2013-07-13 18:07:00,98.1,51.4,29.96,SE,133,4.0,10.0,21,0.00,,,0.00,meteohub,2013-07-14 00:07:00,
2013-07-13 18:12:00,97.9,52.5,29.96,SSE,150,3.0,13.0,22,0.00,,,0.00,meteohub,2013-07-14 00:12:00,
2013-07-13 18:17:00,98.2,52.9,29.96,SSW,194,1.0,13.0,22,0.00,,,0.00,meteohub,2013-07-14 00:17:00,
2013-07-13 18:22:00,99.3,52.5,29.96,SSE,150,9.0,9.0,21,0.00,,,0.00,meteohub,2013-07-14 00:22:00,
2013-07-13 18:27:00,99.0,52.2,29.96,SSE,158,10.0,12.0,21,0.00,,,0.00,meteohub,2013-07-14 00:27:00,
2013-07-13 18:32:00,98.8,52.0,29.96,SE,144,7.0,13.0,21,0.00,,,0.00,meteohub,2013-07-14 00:32:00,
2013-07-13 18:37:00,98.6,52.0,29.96,SE,128,6.0,13.0,21,0.00,,,0.00,meteohub,2013-07-14 00:37:00,
2013-07-13 18:42:00,98.8,52.0,29.96,SE,128,6.0,11.0,21,0.00,,,0.00,meteohub,2013-07-14 00:42:00,
2013-07-13 18:47:00,98.1,51.4,29.96,East,98,6.0,11.0,21,0.00,,,0.00,meteohub,2013-07-14 00:47:00,
2013-07-13 18:52:00,98.1,51.4,29.96,ESE,121,7.0,10.0,21,0.00,,,0.00,meteohub,2013-07-14 00:52:00,
2013-07-13 18:57:00,97.9,52.5,29.96,ESE,113,4.0,10.0,22,0.00,,,0.00,meteohub,2013-07-14 00:57:00,
2013-07-13 19:02:00,97.9,52.5,29.96,ESE,119,8.0,10.0,22,0.00,,,0.00,meteohub,2013-07-14 01:02:00,
2013-07-13 19:07:00,97.5,51.1,29.96,SE,133,5.0,11.0,21,0.00,,,0.00,meteohub,2013-07-14 01:07:00,
2013-07-13 19:12:00,97.3,50.9,29.96,ESE,116,5.0,11.0,21,0.00,,,0.00,meteohub,2013-07-14 01:12:00,
2013-07-13 19:17:00,97.2,52.0,29.96,SE,129,8.0,11.0,22,0.00,,,0.00,meteohub,2013-07-14 01:17:00,
2013-07-13 19:22:00,97.2,52.0,29.96,ESE,115,5.0,9.0,22,0.00,,,0.00,meteohub,2013-07-14 01:22:00,
2013-07-13 19:27:00,97.0,51.8,29.96,ESE,105,5.0,9.0,22,0.00,,,0.00,meteohub,2013-07-14 01:27:00,
2013-07-13 19:32:00,96.6,51.6,29.96,ESE,123,8.0,10.0,22,0.00,,,0.00,meteohub,2013-07-14 01:32:00,
2013-07-13 19:37:00,96.4,52.5,29.96,SE,138,5.0,14.0,23,0.00,,,0.00,meteohub,2013-07-14 01:37:00,
2013-07-13 19:42:00,96.3,52.5,29.96,SE,126,1.0,14.0,23,0.00,,,0.00,meteohub,2013-07-14 01:42:00,
2013-07-13 19:47:00,96.1,52.3,29.97,SE,134,3.0,14.0,23,0.00,,,0.00,meteohub,2013-07-14 01:47:00,
2013-07-13 19:52:00,96.1,52.3,29.97,SE,135,3.0,7.0,23,0.00,,,0.00,meteohub,2013-07-14 01:52:00,
2013-07-13 19:57:00,95.9,52.2,29.97,SE,146,3.0,6.0,23,0.00,,,0.00,meteohub,2013-07-14 01:57:00,
2013-07-13 20:02:00,95.5,51.8,29.97,SE,132,3.0,6.0,23,0.00,,,0.00,meteohub,2013-07-14 02:02:00,
2013-07-13 20:07:00,95.4,52.9,29.97,SE,130,3.0,6.0,24,0.00,,,0.00,meteohub,2013-07-14 02:07:00,
2013-07-13 20:12:00,95.2,52.7,29.97,SSE,148,4.0,8.0,24,0.00,,,0.00,meteohub,2013-07-14 02:12:00,
2013-07-13 20:17:00,95.0,52.5,29.97,SSE,148,3.0,8.0,24,0.00,,,0.00,meteohub,2013-07-14 02:17:00,
2013-07-13 20:22:00,94.8,52.3,29.98,SSE,148,2.0,6.0,24,0.00,,,0.00,meteohub,2013-07-14 02:22:00,
2013-07-13 20:27:00,94.6,52.2,29.98,SSE,148,2.0,5.0,24,0.00,,,0.00,meteohub,2013-07-14 02:27:00,
2013-07-13 20:32:00,94.5,53.2,29.98,SSE,150,2.0,4.0,25,0.00,,,0.00,meteohub,2013-07-14 02:32:00,
2013-07-13 20:37:00,94.5,52.2,29.98,SSE,150,2.0,5.0,24,0.00,,,0.00,meteohub,2013-07-14 02:37:00,
2013-07-13 20:42:00,94.5,52.2,29.99,SSE,157,4.0,5.0,24,0.00,,,0.00,meteohub,2013-07-14 02:42:00,
2013-07-13 20:47:00,94.1,52.9,29.98,SSE,159,2.0,5.0,25,0.00,,,0.00,meteohub,2013-07-14 02:47:00,
2013-07-13 20:52:00,93.7,52.5,29.99,SSE,159,1.0,5.0,25,0.00,,,0.00,meteohub,2013-07-14 02:52:00,
2013-07-13 20:57:00,93.7,52.5,29.99,SSE,154,3.0,5.0,25,0.00,,,0.00,meteohub,2013-07-14 02:57:00,
2013-07-13 21:02:00,93.7,51.4,29.99,SE,136,3.0,5.0,24,0.00,,,0.00,meteohub,2013-07-14 03:02:00,
2013-07-13 21:07:00,93.6,51.3,29.99,SE,136,2.0,5.0,24,0.00,,,0.00,meteohub,2013-07-14 03:07:00,
2013-07-13 21:12:00,93.6,51.3,29.99,SE,136,3.0,5.0,24,0.00,,,0.00,meteohub,2013-07-14 03:12:00,
2013-07-13 21:17:00,93.6,51.3,29.99,SE,136,7.0,7.0,24,0.00,,,0.00,meteohub,2013-07-14 03:17:00,
2013-07-13 21:22:00,93.4,50.0,30.00,SE,139,4.0,17.0,23,0.00,,,0.00,meteohub,2013-07-14 03:22:00,
2013-07-13 21:27:00,93.6,48.9,30.00,ESE,115,4.0,17.0,22,0.00,,,0.00,meteohub,2013-07-14 03:27:00,
2013-07-13 21:32:00,93.6,48.9,30.00,SE,136,6.0,14.0,22,0.00,,,0.00,meteohub,2013-07-14 03:32:00,
2013-07-13 21:37:00,93.6,48.9,30.00,ESE,107,3.0,12.0,22,0.00,,,0.00,meteohub,2013-07-14 03:37:00,
2013-07-13 21:42:00,93.4,48.9,30.01,ESE,121,5.0,11.0,22,0.00,,,0.00,meteohub,2013-07-14 03:42:00,
2013-07-13 21:47:00,93.2,48.7,30.01,ESE,119,4.0,10.0,22,0.00,,,0.00,meteohub,2013-07-14 03:47:00,
2013-07-13 21:52:00,93.0,48.6,30.01,East,97,8.0,14.0,22,0.00,,,0.00,meteohub,2013-07-14 03:52:00,
2013-07-13 21:57:00,92.8,48.4,30.01,ESE,106,2.0,14.0,22,0.00,,,0.00,meteohub,2013-07-14 03:57:00,
2013-07-13 22:02:00,92.7,48.2,30.01,ESE,117,12.0,14.0,22,0.00,,,0.00,meteohub,2013-07-14 04:02:00,
2013-07-13 22:03:00,92.7,48.2,30.01,ESE,120,5.0,14.0,22,0.00,,,0.00,meteohub,2013-07-14 04:03:00,
2013-07-13 22:06:00,92.5,48.0,30.02,ESE,114,5.0,14.0,22,0.00,,,0.00,meteohub,2013-07-14 04:06:00,
2013-07-13 22:07:00,92.5,48.0,30.02,ESE,114,7.0,14.0,22,0.00,,,0.00,meteohub,2013-07-14 04:07:00,
2013-07-13 22:09:00,92.3,48.0,30.02,ESE,120,4.0,14.0,22,0.00,,,0.00,meteohub,2013-07-14 04:09:00,
2013-07-13 22:15:00,91.9,47.7,30.02,SE,146,7.0,14.0,22,0.00,,,0.00,meteohub,2013-07-14 04:15:00,
2013-07-13 22:21:00,91.8,47.5,30.02,SE,132,7.0,11.0,22,0.00,,,0.00,meteohub,2013-07-14 04:21:00,
2013-07-13 22:26:00,91.6,46.0,30.02,SE,132,7.0,11.0,21,0.00,,,0.00,meteohub,2013-07-14 04:26:00,
2013-07-13 22:32:00,91.2,45.9,30.02,SE,126,4.0,12.0,21,0.00,,,0.00,meteohub,2013-07-14 04:32:00,
2013-07-13 22:37:00,91.0,45.7,30.02,East,90,10.0,12.0,21,0.00,,,0.00,meteohub,2013-07-14 04:37:00,
2013-07-13 22:42:00,91.0,45.7,30.02,SSE,153,7.0,13.0,21,0.00,,,0.00,meteohub,2013-07-14 04:42:00,
2013-07-13 22:47:00,90.9,45.5,30.02,ESE,119,8.0,13.0,21,0.00,,,0.00,meteohub,2013-07-14 04:47:00,
2013-07-13 22:52:00,91.0,44.4,30.02,ESE,121,5.0,13.0,20,0.00,,,0.00,meteohub,2013-07-14 04:52:00,
2013-07-13 22:57:00,90.9,44.2,30.02,SE,137,7.0,12.0,20,0.00,,,0.00,meteohub,2013-07-14 04:57:00,
2013-07-13 23:02:00,90.9,44.2,30.02,ESE,122,3.0,12.0,20,0.00,,,0.00,meteohub,2013-07-14 05:02:00,
2013-07-13 23:07:00,90.5,45.3,30.02,SE,135,6.0,10.0,21,0.00,,,0.00,meteohub,2013-07-14 05:07:00,
2013-07-13 23:12:00,90.3,45.1,30.02,SE,128,7.0,10.0,21,0.00,,,0.00,meteohub,2013-07-14 05:12:00,
2013-07-13 23:17:00,90.1,45.0,30.03,SE,130,8.0,10.0,21,0.00,,,0.00,meteohub,2013-07-14 05:17:00,
2013-07-13 23:22:00,90.1,45.0,30.03,SE,143,7.0,16.0,21,0.00,,,0.00,meteohub,2013-07-14 05:22:00,
2013-07-13 23:27:00,90.1,45.0,30.03,SE,127,6.0,16.0,21,0.00,,,0.00,meteohub,2013-07-14 05:27:00,
2013-07-13 23:32:00,89.8,45.9,30.03,ESE,123,7.0,16.0,22,0.00,,,0.00,meteohub,2013-07-14 05:32:00,
2013-07-13 23:37:00,89.2,45.5,30.03,SE,132,7.0,13.0,22,0.00,,,0.00,meteohub,2013-07-14 05:37:00,
2013-07-13 23:42:00,89.1,46.4,30.03,ESE,120,7.0,11.0,23,0.00,,,0.00,meteohub,2013-07-14 05:42:00,
2013-07-13 23:47:00,88.9,46.2,30.03,SE,140,8.0,10.0,23,0.00,,,0.00,meteohub,2013-07-14 05:47:00,
2013-07-13 23:52:00,88.7,46.2,30.03,SE,134,8.0,10.0,23,0.00,,,0.00,meteohub,2013-07-14 05:52:00,
2013-07-13 23:57:00,88.7,46.2,30.03,ESE,121,13.0,13.0,23,0.00,,,0.00,meteohub,2013-07-14 05:57:00,